Norfolk, NE

12:49 PM CST on January 17, 2018 (GMT -0600)
Stefan Memorial

Weather History for KOFK - October, 2012

Change the Weather History Date:

Saturday, October 6, 2012

  Actual Average Record
Temperature  
Mean Temperature 36 °F 55 °F  
Max Temperature 48 °F 68 °F 90 °F (1997)
Min Temperature 24 °F 42 °F 22 °F (2000)
Degree Days  
Heating Degree Days 29 11  
Month to date heating degree days 98 59  
Since 1 July heating degree days 217 201  
Cooling Degree Days 0 1  
Month to date cooling degree days 0 6  
Year to date cooling degree days 1373 912  
Moisture  
Dew Point 20 °F    
Average Humidity 56    
Maximum Humidity 75    
Minimum Humidity 37    
Precipitation  
Precipitation 0.00 in 0.08 in 1.54 in (2008)
Month to date precipitation 0.05 0.50  
Year to date precipitation 12.50 23.72  
Snow  
Snow 0.00 in 0.00 in - ()
Month to date snowfall 0.0 0.0  
Since 1 July snowfall 0.0 T  
Snow Depth 0.00 in    
Sea Level Pressure  
Sea Level Pressure 30.37 in    
Wind  
Wind Speed 9 mph (NW)    
Max Wind Speed 22 mph    
Max Gust Speed 25 mph    
Visibility 10 miles    
Events      
T = Trace of Precipitation, MM = Missing Value Source: NWS Daily Summary

Daily Weather History Graph

Daily Weather History Graph

Search for Another Location

Airport or City:

Trip Planner

Search our weather history database for the weather conditions in past years. The results will help you decide how hot, cold, wet, or windy it might be!

Date:

Astronomy

Oct. 06, 2012 Rise Set
Actual Time 7:32 AM CDT 7:01 PM CDT
Civil Twilight 7:04 AM CDT 7:29 PM CDT
Nautical Twilight 6:32 AM CDT 8:02 PM CDT
Astronomical Twilight 5:59 AM CDT 8:34 PM CDT
Moon 11:14 PM CDT (10/6) 1:32 PM CDT (10/6)
Length of Visible Light 12h 25m
Length of Day
11h 29m
Waning Gibbous, 65% of the Moon is Illuminated
Oct 6
Waning Gibbous
Oct 8
Last Quarter
Oct 15
New
Oct 21
First Quarter
Oct 29
Full

Hourly Weather History & Observations

Time (CDT) Temp. Windchill Dew Point Humidity Pressure Visibility Wind Dir Wind Speed Gust Speed Precip Events Conditions
12:56 AM 36.0 °F 28.5 °F 19.9 °F 52% 30.35 in 10.0 mi NNW 10.4 mph - N/A   Clear
1:56 AM 33.1 °F 26.9 °F 19.0 °F 56% 30.36 in 10.0 mi NNW 6.9 mph - N/A   Clear
2:56 AM 26.1 °F 20.5 °F 17.1 °F 69% 30.37 in 10.0 mi West 4.6 mph - N/A   Clear
3:56 AM 25.0 °F 19.3 °F 17.1 °F 72% 30.37 in 10.0 mi West 4.6 mph - N/A   Clear
4:56 AM 26.1 °F 18.4 °F 17.1 °F 69% 30.38 in 10.0 mi West 6.9 mph - N/A   Clear
5:56 AM 24.1 °F 16.0 °F 17.1 °F 75% 30.39 in 10.0 mi WNW 6.9 mph - N/A   Clear
6:56 AM 24.1 °F 18.2 °F 17.1 °F 75% 30.39 in 10.0 mi NW 4.6 mph - N/A   Clear
7:56 AM 24.1 °F 18.2 °F 17.1 °F 75% 30.40 in 10.0 mi WNW 4.6 mph - N/A   Clear
8:56 AM 32.0 °F 24.8 °F 19.9 °F 61% 30.40 in 10.0 mi NW 8.1 mph - N/A   Clear
9:56 AM 37.0 °F 27.4 °F 21.0 °F 52% 30.41 in 10.0 mi North 17.3 mph 23.0 mph N/A   Clear
10:56 AM 39.0 °F 30.3 °F 21.9 °F 50% 30.41 in 10.0 mi North 16.1 mph - N/A   Clear
11:56 AM 43.0 °F 35.4 °F 23.0 °F 45% 30.41 in 10.0 mi NNW 16.1 mph 23.0 mph N/A   Partly Cloudy
12:56 PM 43.0 °F 36.8 °F 24.1 °F 47% 30.40 in 10.0 mi North 11.5 mph 20.7 mph N/A   Scattered Clouds
1:56 PM 45.0 °F 38.2 °F 23.0 °F 42% 30.38 in 10.0 mi NW 15.0 mph 21.9 mph N/A   Scattered Clouds
2:56 PM 46.0 °F 40.6 °F 21.9 °F 39% 30.36 in 10.0 mi NNW 11.5 mph 23.0 mph N/A   Partly Cloudy
3:56 PM 45.0 °F 38.2 °F 23.0 °F 42% 30.35 in 10.0 mi NNW 15.0 mph - N/A   Scattered Clouds
4:56 PM 45.0 °F 38.2 °F 21.9 °F 40% 30.34 in 10.0 mi NW 15.0 mph 20.7 mph N/A   Partly Cloudy
5:56 PM 44.1 °F 37.1 °F 21.9 °F 42% 30.35 in 10.0 mi NNW 15.0 mph 20.7 mph N/A   Partly Cloudy
6:56 PM 42.1 °F 35.7 °F 21.9 °F 45% 30.35 in 10.0 mi NW 11.5 mph - N/A   Mostly Cloudy
7:56 PM 37.0 °F 32.4 °F 21.0 °F 52% 30.36 in 10.0 mi NW 5.8 mph - N/A   Clear
8:56 PM 30.0 °F 24.1 °F 19.0 °F 64% 30.37 in 10.0 mi West 5.8 mph - N/A   Clear
9:56 PM 28.9 °F 23.9 °F 19.9 °F 69% 30.36 in 10.0 mi WSW 4.6 mph - N/A   Clear
10:56 PM 26.1 °F 20.5 °F 19.0 °F 75% 30.35 in 10.0 mi WSW 4.6 mph - N/A   Clear
11:56 PM 28.0 °F - 19.0 °F 69% 30.34 in 10.0 mi Calm Calm - N/A   Clear